TimeCDT,TemperatureF,Dew PointF,Humidity,Sea Level PressureIn,VisibilityMPH,Wind Direction,Wind SpeedMPH,Gust SpeedMPH,PrecipitationIn,Events,Conditions,WindDirDegrees,DateUTC
12:15 AM,48.7,32.0,52,29.92,10.0,WSW,3.5,-,N/A,,Overcast,250,2012-11-02 05:15:00
12:35 AM,49.3,32.0,51,29.92,10.0,Calm,Calm,-,N/A,,Overcast,0,2012-11-02 05:35:00
12:55 AM,49.6,32.0,51,29.91,10.0,Calm,Calm,-,N/A,,Overcast,0,2012-11-02 05:55:00
1:15 AM,49.3,32.0,51,29.91,10.0,Calm,Calm,-,N/A,,Overcast,0,2012-11-02 06:15:00
1:35 AM,48.7,32.2,53,29.91,10.0,WSW,3.5,-,N/A,,Overcast,240,2012-11-02 06:35:00
1:55 AM,48.2,33.3,56,29.90,10.0,Calm,Calm,-,N/A,,Mostly Cloudy,0,2012-11-02 06:55:00
2:15 AM,48.7,32.2,53,29.90,10.0,Calm,Calm,-,N/A,,Mostly Cloudy,0,2012-11-02 07:15:00
2:55 AM,49.8,32.2,51,29.89,10.0,SW,3.5,-,N/A,,Overcast,220,2012-11-02 07:55:00
3:15 AM,49.1,34.0,56,29.89,10.0,WSW,3.5,-,N/A,,Overcast,240,2012-11-02 08:15:00
3:35 AM,48.9,35.1,59,29.88,10.0,SW,4.6,-,N/A,,Overcast,230,2012-11-02 08:35:00
3:55 AM,48.6,35.2,60,29.89,10.0,WSW,3.5,-,N/A,,Overcast,240,2012-11-02 08:55:00
4:15 AM,49.3,34.2,56,29.88,10.0,Calm,Calm,-,N/A,,Overcast,0,2012-11-02 09:15:00
4:35 AM,48.6,34.0,57,29.88,10.0,WSW,5.8,-,N/A,,Scattered Clouds,250,2012-11-02 09:35:00
4:55 AM,46.9,33.4,59,29.89,10.0,WSW,3.5,-,N/A,,Clear,250,2012-11-02 09:55:00
5:15 AM,46.6,33.1,59,29.89,10.0,WSW,4.6,-,N/A,,Clear,250,2012-11-02 10:15:00
5:35 AM,45.9,33.3,61,29.89,10.0,WSW,3.5,-,N/A,,Clear,240,2012-11-02 10:35:00
5:55 AM,45.7,32.9,61,29.90,10.0,West,3.5,-,N/A,,Clear,260,2012-11-02 10:55:00
6:35 AM,45.1,33.3,63,29.91,10.0,West,4.6,-,N/A,,Clear,260,2012-11-02 11:35:00
6:55 AM,45.3,33.3,63,29.91,10.0,Calm,Calm,-,N/A,,Clear,0,2012-11-02 11:55:00
7:15 AM,44.4,33.3,65,29.93,10.0,Calm,Calm,-,N/A,,Clear,0,2012-11-02 12:15:00
7:35 AM,41.9,32.9,70,29.93,10.0,Calm,Calm,-,N/A,,Clear,0,2012-11-02 12:35:00
7:55 AM,41.9,33.8,73,29.94,10.0,Calm,Calm,-,N/A,,Clear,0,2012-11-02 12:55:00
8:15 AM,43.0,35.1,74,29.95,10.0,Calm,Calm,-,N/A,,Clear,0,2012-11-02 13:15:00
8:55 AM,49.5,36.0,60,29.97,10.0,WNW,4.6,-,N/A,,Clear,300,2012-11-02 13:55:00
9:35 AM,51.8,36.7,56,29.98,10.0,North,4.6,-,N/A,,Clear,360,2012-11-02 14:35:00
9:55 AM,53.2,36.9,54,29.98,10.0,North,5.8,-,N/A,,Clear,350,2012-11-02 14:55:00
10:15 AM,54.3,36.9,52,29.99,10.0,North,3.5,-,N/A,,Clear,350,2012-11-02 15:15:00
10:35 AM,55.6,36.1,48,29.99,10.0,ENE,3.5,-,N/A,,Clear,60,2012-11-02 15:35:00
11:15 AM,57.4,35.2,43,30.00,10.0,NE,4.6,-,N/A,,Clear,40,2012-11-02 16:15:00
11:35 AM,58.3,34.5,41,30.00,10.0,North,5.8,-,N/A,,Clear,350,2012-11-02 16:35:00
11:55 AM,58.6,34.3,40,29.99,10.0,North,6.9,-,N/A,,Clear,360,2012-11-02 16:55:00
12:15 PM,59.4,33.1,37,29.99,10.0,Calm,Calm,-,N/A,,Clear,0,2012-11-02 17:15:00
12:35 PM,59.7,33.8,38,29.98,7.0,Calm,Calm,-,N/A,,Clear,0,2012-11-02 17:35:00
12:55 PM,59.7,32.9,36,29.98,10.0,NNE,5.8,-,N/A,,Clear,30,2012-11-02 17:55:00
1:15 PM,59.7,32.7,36,29.98,10.0,East,3.5,-,N/A,,Clear,80,2012-11-02 18:15:00
1:55 PM,60.4,32.0,34,29.98,7.0,Calm,Calm,-,N/A,,Clear,0,2012-11-02 18:55:00
2:15 PM,60.8,30.6,32,29.99,10.0,NNW,3.5,-,N/A,,Clear,330,2012-11-02 19:15:00
2:35 PM,61.0,29.5,30,29.99,10.0,North,4.6,-,N/A,,Clear,10,2012-11-02 19:35:00
2:55 PM,61.0,29.3,30,29.99,10.0,NNW,4.6,-,N/A,,Clear,340,2012-11-02 19:55:00
3:15 PM,60.8,28.9,30,29.99,10.0,Calm,Calm,-,N/A,,Clear,0,2012-11-02 20:15:00
4:15 PM,60.3,28.2,30,30.00,10.0,NNW,3.5,-,N/A,,Clear,330,2012-11-02 21:15:00
4:35 PM,59.5,28.4,31,30.00,10.0,North,6.9,-,N/A,,Clear,10,2012-11-02 21:35:00
4:55 PM,58.6,28.8,32,30.00,10.0,North,4.6,-,N/A,,Clear,10,2012-11-02 21:55:00
5:15 PM,57.4,29.3,34,30.00,10.0,Calm,Calm,-,N/A,,Clear,0,2012-11-02 22:15:00
5:55 PM,54.0,29.3,39,30.01,10.0,Calm,Calm,-,N/A,,Clear,0,2012-11-02 22:55:00
6:15 PM,51.6,30.6,45,30.01,10.0,Calm,Calm,-,N/A,,Clear,0,2012-11-02 23:15:00
6:35 PM,49.6,31.5,50,30.02,10.0,Calm,Calm,-,N/A,,Clear,0,2012-11-02 23:35:00
6:55 PM,48.7,31.8,52,30.03,10.0,Calm,Calm,-,N/A,,Clear,0,2012-11-02 23:55:00
7:15 PM,47.7,31.8,54,30.04,10.0,Calm,Calm,-,N/A,,Clear,0,2012-11-03 00:15:00
7:55 PM,45.5,31.6,58,30.04,10.0,Calm,Calm,-,N/A,,Clear,0,2012-11-03 00:55:00
8:15 PM,43.7,32.0,63,30.04,10.0,Calm,Calm,-,N/A,,Clear,0,2012-11-03 01:15:00
8:35 PM,44.1,32.0,63,30.05,10.0,Calm,Calm,-,N/A,,Clear,0,2012-11-03 01:35:00
8:55 PM,41.9,32.0,68,30.05,10.0,Calm,Calm,-,N/A,,Clear,0,2012-11-03 01:55:00
9:15 PM,40.8,32.2,71,30.06,10.0,Calm,Calm,-,N/A,,Clear,0,2012-11-03 02:15:00
9:35 PM,40.3,32.2,73,30.06,10.0,Calm,Calm,-,N/A,,Clear,0,2012-11-03 02:35:00
9:55 PM,39.7,32.0,74,30.07,10.0,East,3.5,-,N/A,,Clear,90,2012-11-03 02:55:00
10:15 PM,39.9,32.0,73,30.07,10.0,Calm,Calm,-,N/A,,Clear,0,2012-11-03 03:15:00
10:35 PM,39.6,32.0,74,30.07,10.0,Calm,Calm,-,N/A,,Clear,0,2012-11-03 03:35:00
10:55 PM,39.2,32.0,75,30.07,10.0,Calm,Calm,-,N/A,,Clear,0,2012-11-03 03:55:00
11:15 PM,39.6,31.8,74,30.07,10.0,Calm,Calm,-,N/A,,Clear,0,2012-11-03 04:15:00
11:35 PM,38.3,31.8,77,30.07,10.0,Calm,Calm,-,N/A,,Clear,0,2012-11-03 04:35:00